Voltar ao catálogo

NIMBUS 2 DEB

AtivoPO
NORAD 28200·DEBRIS·🇺🇸 United States

Lançado May 15, 1966 de Vandenberg Space Force Base

Loading…

Próximas Passagens (próximas 24 horas)

TLE

AtualizadoSource: Space-Track

Época: Sep 14, 2026, 10:51 UTC

1 28200U 66040N   26257.45221161 -.00002987  00000-0 -67368-2 0  9992
2 28200  99.6437 334.3003 0055726 152.0147 276.3234 13.25079515143477

Acompanhe NIMBUS 2 DEB em tempo real com AllMySat

Download on the App Store